Skip Page Navigation
NASA JPL Caltech
NASA Logo - Jet Propulsion Laboratory + View the NASA Portal
+ Center for Near-Earth Object Studies
JPL Home Earth Solar System Stars & Galaxies Technology
JPL Solar System Dynamics
BODIES ORBITS EPHEMERIDES TOOLS PHYSICAL DATA DISCOVERY FAQ SITE MAP
IMPORTANT: The SSD Announcement email list is now available. Major changes are coming in the near future, including possible hostname and/or URL changes. To be notified of such changes, subscribe to this email list.

Please visit this page for more details.


JPL Small-Body Database Browser
Search: [ help ]  
523741 (2014 TY85)
Classification: TransNeptunian Object          SPK-ID: 2523741
Ephemeris | Orbit Diagram | Orbital Elements | Physical Parameters | Discovery Circumstances ]

[ show orbit diagram ]
Orbital Elements at Epoch 2458600.5 (2019-Apr-27.0) TDB
Reference: JPL 5 (heliocentric ecliptic J2000)
 Element Value Uncertainty (1-sigma)   Units 
e .2025190284603942 1.7949e-05  
a 40.82354564084368 0.0011134 au
q 32.55600083935146 0.00016176 au
i 19.1556680027548 7.2551e-05 deg
node 42.42950542176957 2.804e-05 deg
peri 8.922791049337247 0.0053356 deg
M 4.714699390418939 0.0034865 deg
tp 2457352.783219311718
(2015-Nov-26.28321931)
0.91716 TDB
period 95271.83047143719
260.84
3.8975
0.01067
d
yr
n .003778661522704019 1.5458e-07 deg/d
Q 49.0910904423359 0.0013389 au
  Orbit Determination Parameters
   # obs. used (total)      166  
   data-arc span      2645 days (7.24 yr)  
   first obs. used      2010-10-08  
   last obs. used      2018-01-04  
   planetary ephem.      DE431  
   SB-pert. ephem.      SB431-N16  
   condition code      2  
   norm. resid. RMS      .52193  
   source      ORB  
   producer      Otto Matic  
   solution date      2018-Oct-04 12:52:49  

Additional Information
 Earth MOID = 31.5677 au 
 Jupiter MOID = 27.5635 au 
 T_jup = 5.310 
[ show covariance matrix ]

Ephemeris | Orbit Diagram | Orbital Elements | Physical Parameters | Discovery Circumstances ]

Physical Parameter Table
Parameter Symbol Value Units Sigma Reference Notes
absolute magnitude H 6.6   n/a MPO450809  

523741 (2014 TY85)          Discovered 2010-Oct-08 by Pan-STARRS 1 at Haleakala
Reference: Last Updated: 2018-10-01
Ephemeris | Orbit Diagram | Orbital Elements | Physical Parameters | Discovery Circumstances ]
ABOUT SSD CREDITS/AWARDS PRIVACY/COPYRIGHT GLOSSARY LINKS
FirstGov
(server date/time)  
NASA Home Page
Site Manager:   Ryan S. Park
Webmaster  Alan B. Chamberlin